[[{"header":{"parameterUnit":"m.s-1","parameterCategory":1,"la1":30.2991,"la2":30.254,"lo1":-89.0895,"lo2":-89.0444,"dy":0.0017,"dx":0.0017,"nx":28,"ny":28,"refTime":"2023-05-26T21:00:00:Z","depth":0,"parameterNumber":2,"parameterNumberName":"U-component_of_WINDS"},"data":[0,0,0,0,0,0,0,0,0,0,0,0,0,0,0,0,0,0,0,0,0,0,0,0,0,0,0,0,0,0,0,0,0,0,0,0,0,0,0,0,0,0,0,0,0,0,0,0,0,0,0,0,0,0,0,0,0,0,0.3326,0.3327,0,0.3421,0.3422,0.3423,0.3487,0.3488,0.3488,0.3488,0.3587,0.3589,0.3591,0,0,0,0,0,0,0,0,0,0,0,0,0,0.3201,0.3203,0.3326,0.3327,0.3328,0.342,0.3422,0.3423,0.3487,0.3488,0.3488,0.3489,0.3586,0.3589,0.3591,0,0,0,0,0,0,0,0,0,0,0,0,0,0.3271,0.3203,0.3326,0.3371,0.3376,0.342,0.3422,0.3423,0.3487,0.3488,0.3488,0.3489,0.3585,0.3589,0.3592,0.3598,0,0,0.3602,0.3603,0,0,0,0,0,0,0,0,0.3267,0.3276,0.3363,0.3368,0.3374,0.3443,0.3414,0.3482,0.3487,0.3445,0.3488,0.3489,0.3538,0.3546,0.3562,0.3603,0.3607,0.3602,0.3604,0.3606,0.3606,0,0,0,0,0,0,0,0.3262,0.3272,0.3363,0.3364,0.3371,0.3387,0.3398,0.3427,0.3487,0.3449,0.3453,0.3464,0.3542,0.3559,0.3565,0.3609,0.3602,0.3605,0.3607,0.3608,0.3659,0.3658,0,0,0,0,0,0,0.325,0.3268,0.336,0.3366,0.3321,0.3389,0.3401,0.342,0.3487,0.3497,0.3463,0.3466,0.3553,0.3561,0.3568,0.3579,0.3606,0.3609,0.3611,0.366,0.3659,0.3658,0,0,0,0,0,0,0.3247,0.3258,0.3357,0.3318,0.3332,0.339,0.3411,0.3421,0.3439,0.3498,0.3509,0.3469,0.3554,0.3564,0.359,0.3584,0.361,0.3613,0.366,0.3659,0.3658,0.3602,0,0,0,0,0,0,0.3243,0.3256,0.3259,0.3318,0.3334,0.3376,0.3411,0.3423,0.3444,0.3449,0.3507,0.3517,0.3555,0.3585,0.3593,0.3589,0.3616,0.3661,0.366,0.3659,0.3604,0.3599,0.3594,0,0,0,0,0,0.3239,0.324,0.3259,0.327,0.3339,0.3376,0.3385,0.3428,0.3443,0.3447,0.3484,0.3515,0.3583,0.3587,0.3597,0.3593,0.3662,0.366,0.3659,0.3607,0.36,0.3595,0,0,0,0,0,0,0.318,0.3249,0.327,0.3291,0.3327,0.3386,0.3392,0.342,0.3453,0.3456,0.351,0.3522,0.3542,0.3571,0.3574,0.3603,0.3626,0.3627,0.3583,0.3577,0.3572,0.3564,0.3618,0,0,0,0,0,0.3169,0.3193,0.3252,0.3265,0.3281,0.3333,0.3351,0.3381,0.3421,0.3437,0.3477,0.3514,0.3544,0.3563,0.3594,0.361,0.3622,0.3612,0.3607,0.3602,0.3602,0.3611,0.3607,0.3653,0.3653,0.3653,0,0,0.3147,0.3188,0.32,0.3254,0.3285,0.3308,0.3346,0.3369,0.3387,0.3441,0.3467,0.3498,0.3543,0.3564,0.3575,0.3588,0.3592,0.3601,0.3597,0.3599,0.3609,0.3605,0.3601,0.3652,0.3653,0.3653,0,0,0.3119,0.3153,0.3166,0.3197,0.3244,0.3278,0.3281,0.3337,0.3358,0.3386,0.3426,0.3449,0.3499,0.353,0.3552,0.3534,0.3563,0.3543,0.3516,0.3525,0.3521,0.3518,0.351,0.3507,0.3543,0.3543,0.3543,0,0.3086,0.3123,0.317,0.319,0.3212,0.3261,0.3275,0.3303,0.3357,0.3371,0.3385,0.3449,0.3484,0.3511,0.3507,0.3524,0.3528,0.3536,0.3518,0.3515,0.3513,0.3506,0.3503,0.354,0.354,0.354,0.3541,0,0.3079,0.3104,0.3109,0.316,0.3183,0.32,0.3249,0.3267,0.3295,0.3328,0.3355,0.3398,0.3437,0.3447,0.3475,0.3478,0.3485,0.3508,0.3532,0.3505,0.3499,0.3497,0.3536,0.3537,0.3538,0.3538,0,0,0.3016,0.3092,0.3093,0.3116,0.3171,0.3191,0.3211,0.3249,0.3262,0.3299,0.3315,0.3357,0.3378,0.3403,0.3435,0.3443,0.3425,0.3465,0.3467,0.3454,0.3429,0.341,0.3406,0.3445,0.3444,0.3444,0.3424,0,0.2995,0.3031,0.3074,0.3095,0.3118,0.3165,0.3182,0.3217,0.3249,0.3273,0.3308,0.3336,0.3363,0.3378,0.3387,0.3425,0.342,0.3427,0.346,0.3461,0.3445,0.3404,0.3384,0.3363,0.3423,0.3423,0.3422,0,0.2975,0.3008,0.3031,0.3084,0.3095,0.3109,0.3147,0.317,0.3211,0.3233,0.326,0.3295,0.3318,0.334,0.3371,0.3375,0.3391,0.3412,0.3412,0.3415,0.3438,0.3404,0.3358,0.3354,0.342,0.342,0.342,0,0.2924,0.2974,0.2995,0.3013,0.3075,0.3084,0.311,0.3152,0.3172,0.3206,0.3219,0.3255,0.3274,0.3301,0.3344,0.3357,0.337,0.3397,0.3389,0.3388,0.3388,0.3387,0.3342,0.3402,0.3402,0.3402,0.3402,0,0.2895,0.2907,0.2972,0.2984,0.2999,0.3048,0.3062,0.3093,0.3129,0.3148,0.3192,0.3209,0.3266,0.3289,0.3324,0.3343,0.3352,0.3371,0.3379,0.3365,0.3363,0.3376,0.3377,0.3401,0.3401,0.3401,0.3401,0,0.284,0.2884,0.2909,0.2966,0.298,0.2988,0.3037,0.305,0.3084,0.3108,0.3116,0.3169,0.3199,0.3245,0.329,0.3313,0.3326,0.3341,0.3311,0.3316,0.3305,0.3304,0.3264,0.3261,0.3324,0.3324,0.3323,0,0.2817,0.2827,0.2885,0.29,0.2925,0.295,0.297,0.3019,0.3038,0.3086,0.3093,0.3126,0.3155,0.3201,0.3244,0.3278,0.3293,0.3277,0.3298,0.3284,0.3291,0.3288,0.3289,0.3271,0.327,0.3269,0.3269,0,0.2772,0.2793,0.2821,0.2855,0.2878,0.2908,0.2941,0.2951,0.3007,0.3026,0.3057,0.3079,0.3124,0.3156,0.3195,0.3223,0.3254,0.3262,0.3261,0.3246,0.3228,0.3236,0.3295,0.3262,0.3263,0.3263,0.3264,0.3264,0.2731,0.2742,0.2783,0.2812,0.2842,0.2871,0.2886,0.2921,0.2948,0.2987,0.3015,0.3043,0.3084,0.314,0.3166,0.3189,0.3203,0.3203,0.3203,0.3201,0.3195,0.3226,0.3197,0.3197,0.3197,0.3198,0.3198,0,0.2686,0.2715,0.2742,0.2785,0.2807,0.2836,0.2872,0.2889,0.2914,0.2949,0.2976,0.3011,0.3042,0.3088,0.3122,0.3132,0.3147,0.3139,0.3138,0.3143,0.3182,0.3178,0.3126,0.3126,0.3126,0.3126,0.3126,0.3126,0.2665,0.2684,0.2711,0.2745,0.2774,0.2802,0.282,0.2847,0.2875,0.2912,0.2938,0.2967,0.3006,0.3044,0.3074,0.3086,0.3096,0.3083,0.31,0.3134,0.3141,0.3147,0.3143,0.3085,0.3085,0.3059,0.3059,0.3058]},{"header":{"parameterUnit":"m.s-1","parameterCategory":1,"la1":30.2991,"la2":30.254,"lo1":-89.0895,"lo2":-89.0444,"dy":0.0017,"dx":0.0017,"nx":28,"ny":28,"refTime":"2023-05-26T21:00:00:Z","depth":0,"parameterNumber":3,"parameterNumberName":"V-component_of_WINDS"},"data":[0,0,0,0,0,0,0,0,0,0,0,0,0,0,0,0,0,0,0,0,0,0,0,0,0,0,0,0,0,0,0,0,0,0,0,0,0,0,0,0,0,0,0,0,0,0,0,0,0,0,0,0,0,0,0,0,0,0,2.9991,2.999,0,2.9926,2.9925,2.9924,2.9891,2.9891,2.9891,2.9891,2.9818,2.9816,2.9814,0,0,0,0,0,0,0,0,0,0,0,0,0,3.0081,3.0079,2.9991,2.999,2.9989,2.9926,2.9925,2.9924,2.9891,2.9891,2.9891,2.9891,2.9818,2.9816,2.9814,0,0,0,0,0,0,0,0,0,0,0,0,0,3.0031,3.0079,2.9991,2.9965,2.9962,2.9926,2.9925,2.9924,2.9891,2.9891,2.9891,2.9891,2.9819,2.9816,2.9813,2.9795,0,0,2.9804,2.9803,0,0,0,0,0,0,0,0,3.0034,3.0028,2.997,2.9967,2.9964,2.9917,2.993,2.988,2.9891,2.9918,2.9891,2.9891,2.985,2.9845,2.9832,2.9792,2.9788,2.9804,2.9802,2.9801,2.98,0,0,0,0,0,0,0,3.0038,3.003,2.9965,2.9969,2.9965,2.9955,2.9948,2.992,2.9885,2.9916,2.9913,2.9906,2.9848,2.9835,2.983,2.9787,2.9804,2.9801,2.98,2.9798,2.9728,2.9728,0,0,0,0,0,0,3.0046,3.0034,2.9967,2.9963,3.0,2.9954,2.9946,2.9932,2.9885,2.9878,2.9906,2.9905,2.984,2.9834,2.9827,2.9803,2.9801,2.9798,2.9796,2.9729,2.9728,2.9728,0,0,0,0,0,0,3.0048,3.004,2.9969,2.9998,2.9988,2.9952,2.9937,2.993,2.9917,2.9878,2.9871,2.99,2.984,2.9832,2.9804,2.98,2.9797,2.9794,2.9729,2.9728,2.9728,2.9755,0,0,0,0,0,0,3.0051,3.0041,3.0035,2.9998,2.9986,2.9949,2.9936,2.9929,2.9913,2.9911,2.987,2.9863,2.9839,2.9808,2.9801,2.9796,2.9792,2.9729,2.9729,2.9728,2.9754,2.9755,2.9757,0,0,0,0,0,3.0054,3.0044,3.0035,3.0027,2.9979,2.9949,2.9942,2.9917,2.9913,2.9906,2.9881,2.9864,2.9802,2.9806,2.9797,2.9791,2.9729,2.9729,2.9728,2.9753,2.9755,2.9757,0,0,0,0,0,0,3.0079,3.0038,3.0028,3.0006,2.9982,2.9943,2.9934,2.992,2.9894,2.9892,2.986,2.9851,2.9826,2.9806,2.9811,2.9771,2.9764,2.9762,2.9786,2.9787,2.9788,2.9793,2.9789,0,0,0,0,0,3.0083,3.0064,3.0028,3.0012,3.0,2.9969,2.9955,2.9938,2.9911,2.9899,2.9872,2.9844,2.9818,2.9801,2.9775,2.9751,2.9741,2.9743,2.9744,2.9745,2.9744,2.9729,2.9729,2.9728,2.9728,2.9728,0,0,3.0088,3.0064,3.0053,3.0016,2.9995,2.9975,2.9961,2.9939,2.9923,2.9895,2.9868,2.9847,2.9813,2.9788,2.9775,2.977,2.9742,2.9745,2.9746,2.9744,2.9729,2.9729,2.9729,2.9727,2.9727,2.9728,0,0,3.0089,3.0069,3.0053,3.0033,3.0002,2.9982,2.9978,2.9943,2.9929,2.9901,2.988,2.9859,2.9816,2.9793,2.9775,2.9768,2.9752,2.9761,2.9767,2.9754,2.9754,2.9754,2.9751,2.975,2.9759,2.9759,2.9759,0,3.0099,3.007,3.0046,3.0027,3.0011,2.9987,2.997,2.9951,2.9912,2.9901,2.9897,2.9842,2.9817,2.9786,2.9785,2.9771,2.9765,2.9765,2.9756,2.9756,2.9755,2.9752,2.9751,2.976,2.976,2.976,2.976,0,3.0084,3.0064,3.0055,3.0021,3.0004,2.9986,2.9958,2.9943,2.9927,2.9907,2.9879,2.985,2.9817,2.9809,2.9792,2.9775,2.9773,2.9763,2.9754,2.9757,2.9754,2.9752,2.9762,2.9762,2.9761,2.9761,0,0,3.0098,3.0053,3.0049,3.0034,2.9999,2.9982,2.9962,2.9933,2.9921,2.9895,2.9877,2.9841,2.9832,2.9812,2.9793,2.9781,2.9777,2.9772,2.9771,2.9774,2.9756,2.9763,2.9762,2.9767,2.9767,2.9766,2.9758,0,3.0093,3.0059,3.0038,3.0011,2.9992,2.997,2.9952,2.9928,2.9909,2.9888,2.9865,2.984,2.9831,2.9819,2.9806,2.9781,2.9773,2.9781,2.9748,2.9747,2.9757,2.976,2.9768,2.9762,2.9757,2.9757,2.9756,0,3.0082,3.006,3.0033,3.0001,2.9992,2.9977,2.9949,2.993,2.9901,2.9888,2.9867,2.9848,2.9825,2.9819,2.9786,2.9792,2.9777,2.9763,2.9762,2.9757,2.9751,2.9755,2.9759,2.9758,2.9754,2.9754,2.9754,0,3.0095,3.0058,3.0037,3.0024,2.9986,2.9976,2.9959,2.9931,2.9915,2.989,2.9879,2.9851,2.9835,2.9812,2.9786,2.9784,2.9755,2.9747,2.9741,2.9742,2.9735,2.9736,2.9737,2.9727,2.9727,2.9727,2.9727,0,3.0091,3.0075,3.0042,3.0029,3.001,2.9985,2.9966,2.9947,2.9923,2.9904,2.9883,2.9865,2.9832,2.981,2.9789,2.9764,2.9757,2.9744,2.9739,2.9746,2.9747,2.9735,2.9734,2.9727,2.9727,2.9727,2.9727,0,3.0102,3.0079,3.0055,3.0021,3.0013,3.0,2.9971,2.9956,2.9936,2.9913,2.9906,2.9874,2.9847,2.9819,2.9782,2.9768,2.9744,2.9736,2.9754,2.9751,2.9747,2.9748,2.9739,2.9736,2.9729,2.973,2.973,0,3.0101,3.0089,3.0055,3.0042,3.0027,3.0006,2.9991,2.9965,2.995,2.9917,2.9906,2.9878,2.9855,2.9813,2.9785,2.9756,2.9747,2.9746,2.9743,2.975,2.9747,2.9748,2.9746,2.9747,2.9747,2.9748,2.9748,0,3.0102,3.0091,3.0071,3.0047,3.003,3.0008,2.9986,2.9977,2.9946,2.993,2.9903,2.9885,2.9849,2.9821,2.979,2.977,2.9753,2.975,2.9747,2.9753,2.9764,2.9758,2.9757,2.9749,2.9749,2.9749,2.9749,2.9749,3.0106,3.0094,3.0069,3.0047,3.0028,3.0009,2.9994,2.9973,2.9952,2.9922,2.9907,2.9881,2.9852,2.9808,2.9789,2.9767,2.9762,2.9758,2.9757,2.9756,2.9758,2.9769,2.9761,2.9761,2.9761,2.9761,2.9761,0,3.0105,3.0089,3.0069,3.004,3.0022,3.0011,2.9986,2.9972,2.995,2.9926,2.9904,2.9873,2.9847,2.9817,2.9788,2.9776,2.9768,2.9769,2.9769,2.9765,2.9764,2.9769,2.9776,2.9776,2.9776,2.9776,2.9776,2.9776,3.0103,3.0083,3.0069,3.0039,3.0021,2.9998,2.9984,2.9965,2.9946,2.9914,2.9893,2.9875,2.9848,2.9817,2.9792,2.9784,2.9773,2.9777,2.9767,2.9766,2.9765,2.9764,2.9769,2.9775,2.9775,2.9769,2.9769,2.9769]}]]